Effective Sunday, March 17, 2024, the National Weather Service National Data Buoy Center will discontinue its Dial-A-Buoy Interactive Voice Response system. For more information, see Service Change Notice 24-06 (PDF).

Station CHSV3 - 9751364 - Christiansted Harbor, St. Croix, VI Image indicating link to RSS feed of recent meteorological observations for station CHSV3


Conditions at CHSV3 as of
(11:00 pm AST on 02/23/2024)
0300 GMT on 02/24/2024:
     

Click on the graph icon in the table below to see a time series plot of the last five days of that observation.

5-day plot - Wind Direction Wind Direction (WDIR):ENE ( 70 deg true )
5-day plot - Wind Speed Wind Speed (WSPD): 2.9 kts
5-day plot - Wind Gust Wind Gust (GST): 5.1 kts
5-day plot - Atmospheric Pressure Atmospheric Pressure (PRES):30.00 in
5-day plot - Pressure Tendency Pressure Tendency (PTDY):+0.02 in ( Rising )
5-day plot - Water Temperature Water Temperature (WTMP): 81.5 °F
5-day plot - Wind Speed at 10 Meters Wind Speed at 10 meters (WSPD10M): 3.9 kts
5-day plot - Wind Speed at 20 Meters Wind Speed at 20 meters (WSPD20M): 3.9 kts
5-day plot -  Wind Speed, Wind Gust and Atmospheric Pressure Combined plot of Wind Speed, Gust, and Air Pressure
NOS Water Level Observation Network Water Level
Previous observations
TIME
(AST)
5-day plot - Wind Direction
WDIR
 
5-day plot - Wind Speed
WSPD
kts
5-day plot - Wind Gust
GST
kts
5-day plot - Wave Height
WVHT
ft
5-day plot - Dominant Wave Period
DPD
sec
5-day plot - Average Wave Period
APD
sec
5-day plot - Mean Wave Direction
MWD
 
5-day plot - Atmospheric Pressure
PRES
in
5-day plot - Pressure Tendency
PTDY
in
5-day plot - Air Temperature
ATMP
°F
5-day plot - Water Temperature
WTMP
°F
5-day plot - Dew Point
DEWP
°F
5-day plot - Salinity
SAL
psu
5-day plot - Visibility
VIS
nmi
5-day plot - Tide (above MLLW)
TIDE
ft
2024-02-23 10:54 pmENE 2.9 7.0----30.00-- 81.7----
2024-02-23 10:48 pmENE 1.9 5.1----30.00-- 81.7----
2024-02-23 10:42 pm E 2.9 4.1----30.01-- 81.7----
2024-02-23 10:36 pm E 1.9 4.1----30.01-- 81.7----
2024-02-23 10:30 pmENE 2.9 5.1----30.01-- 81.7----
2024-02-23 10:24 pm E 1.9 6.0----30.01-- 81.7----
2024-02-23 10:18 pm E 2.9 5.1----30.01-- 81.7----
2024-02-23 10:12 pm E 4.1 6.0----30.01-- 81.7----
2024-02-23 10:06 pm E 2.9 5.1----30.00-- 81.7----
2024-02-23 10:00 pm E 4.1 6.0----30.00+0.04- 81.7----
2024-02-23 09:54 pm E 2.9 6.0----30.00-- 81.7----
2024-02-23 09:48 pm E 2.9 6.0----30.00-- 81.7----
2024-02-23 09:42 pm E 4.1 6.0----30.00-- 81.7----
2024-02-23 09:36 pm E 2.9 5.1----30.00-- 81.7----
2024-02-23 09:30 pm E 2.9 6.0----30.00-------
2024-02-23 09:24 pm E 2.9 7.0----30.00-------
2024-02-23 09:18 pm E 2.9 5.1----30.00-- 81.7----
2024-02-23 09:12 pm E 2.9 6.0----30.00-- 81.7----
2024-02-23 09:06 pm E 2.9 5.1----30.00-- 81.7----
2024-02-23 09:00 pm E 1.9 4.1----29.99+0.04- 81.7----
2024-02-23 08:54 pm E 4.1 6.0----29.99-- 81.7----
2024-02-23 08:48 pm E 2.9 7.0----29.99-- 81.7----
2024-02-23 08:42 pm E 1.9 6.0----29.99-- 81.7----
2024-02-23 08:36 pm E 4.1 5.1----29.99-- 81.7----
2024-02-23 08:30 pm E 1.9 4.1----29.99-- 81.7----
2024-02-23 08:24 pm E 2.9 5.1----29.98-- 81.7----
2024-02-23 08:18 pm E 2.9 6.0----29.98-- 81.7----
2024-02-23 08:12 pm E 4.1 6.0----29.98-- 81.7----
2024-02-23 08:06 pm E 2.9 6.0----29.98-- 81.7----
2024-02-23 08:00 pm E 4.1 6.0----29.98+0.04------
2024-02-23 07:54 pm E 4.1 5.1----29.98-------
2024-02-23 07:48 pm E 4.1 5.1----29.97-- 81.7----
2024-02-23 07:42 pm E 1.9 5.1----29.97-- 81.7----
2024-02-23 07:36 pm E 2.9 5.1----29.97-- 81.7----
2024-02-23 07:30 pm E 2.9 4.1----29.97-- 81.7----
2024-02-23 07:24 pm E 1.9 4.1----29.97-- 81.7----
2024-02-23 07:18 pm E 1.9 6.0----29.96-- 81.7----
2024-02-23 07:12 pmENE 4.1 7.0----29.96-- 81.7----
2024-02-23 07:06 pm NE 2.9 7.0----29.96-- 81.5----
2024-02-23 07:00 pm E 2.9 7.0----29.96+0.03- 81.7----
2024-02-23 06:54 pm NE 4.1 8.0----29.96-- 81.7----
2024-02-23 06:48 pm NE 4.1 7.0----29.96-- 81.7----
2024-02-23 06:42 pm NE 6.0 8.9----29.96-- 81.7----
2024-02-23 06:36 pmENE 4.1 7.0----29.96-- 81.5----
2024-02-23 06:30 pm NE 4.1 8.0----29.96-- 81.7----
2024-02-23 06:24 pm NE 4.1 8.0----29.96-- 81.7----
2024-02-23 06:18 pm NE 5.1 8.9----29.95-- 81.7----
2024-02-23 06:12 pmENE 4.1 8.0----29.95-- 81.7----
2024-02-23 06:06 pm NE 5.1 8.0----29.95-- 81.7----
2024-02-23 06:00 pm NE 5.1 8.9----29.95+0.01- 81.7----
2024-02-23 05:54 pm NE 6.0 8.9----29.95-- 81.7----
2024-02-23 05:48 pm NE 5.1 8.9----29.95-- 81.7----
2024-02-23 05:42 pmNNE 6.0 8.9----29.95-- 81.5----
2024-02-23 05:36 pmNNE 6.0 9.9----29.95-- 81.5----
2024-02-23 05:30 pmNNE 6.0 9.9----29.95-- 81.5----
2024-02-23 05:24 pmNNE 8.0 9.9----29.95-- 81.5----
2024-02-23 05:18 pm NE 6.0 9.9----29.94-- 81.5----
2024-02-23 05:12 pmNNE 5.1 8.0----29.94-- 81.5----
2024-02-23 05:06 pmNNE 7.0 8.9----29.94-- 81.5----
2024-02-23 05:00 pmNNE 6.0 11.1----29.94-0.01- 81.5----
2024-02-23 04:54 pmNNE 6.0 9.9----29.94-- 81.5----
2024-02-23 04:48 pmNNE 7.0 8.9----29.94-- 81.5----
2024-02-23 04:42 pm NE 5.1 9.9----29.94-- 81.5----
2024-02-23 04:36 pmNNE 8.0 12.0----29.94-- 81.5----
2024-02-23 04:30 pm NE 5.1 11.1----29.94-- 81.3----
2024-02-23 04:24 pmNNE 6.0 11.1----29.93-- 81.3----
2024-02-23 04:18 pmNNE 7.0 12.0----29.93-- 81.3----
2024-02-23 04:12 pmNNE 5.1 11.1----29.93-- 81.3----
2024-02-23 04:06 pmNNE 7.0 11.1----29.93-- 81.3----
2024-02-23 04:00 pmNNE 8.9 12.0----29.93-0.05- 81.1----
2024-02-23 03:54 pmNNE 8.0 12.0----29.93-- 81.1----
2024-02-23 03:48 pmNNE 8.0 12.0----29.93-- 81.1----
2024-02-23 03:42 pmNNE 7.0 8.9----29.93-- 81.1----
2024-02-23 03:36 pmNNE 8.0 12.0----29.93-- 81.1----
2024-02-23 03:30 pmNNE 9.9 12.0----29.93-- 81.1----
2024-02-23 03:24 pmNNE 7.0 11.1----29.93-- 81.0----
2024-02-23 03:18 pmNNE 7.0 8.9----29.93-- 81.0----
2024-02-23 03:12 pmNNE 6.0 9.9----29.93-- 81.0----
2024-02-23 03:06 pmNNE 5.1 12.0----29.93-- 81.0----
2024-02-23 03:00 pmNNE 6.0 11.1----29.94-0.06- 81.0----
2024-02-23 02:54 pmNNE 7.0 9.9----29.94-- 80.8----
2024-02-23 02:48 pmNNE 7.0 12.0----29.94-- 80.8----
2024-02-23 02:42 pmNNE 8.0 9.9----29.94-- 80.8----
2024-02-23 02:36 pmNNE 5.1 9.9----29.94-- 80.8----
2024-02-23 02:30 pmNNE 8.0 12.0----29.94-- 80.8----
2024-02-23 02:24 pmNNE 6.0 9.9----29.95-- 80.6----
2024-02-23 02:18 pm NE 7.0 12.0----29.95-- 80.6----
2024-02-23 02:12 pm NE 5.1 9.9----29.95-- 80.6----
2024-02-23 02:06 pmNNE 7.0 9.9----29.95-- 80.6----
2024-02-23 02:00 pmNNE 7.0 8.9----29.95-0.06- 80.4----
2024-02-23 01:54 pmNNE 6.0 11.1----29.96-- 80.4----
2024-02-23 01:48 pmNNE 8.0 11.1----29.96-- 80.4----
2024-02-23 01:42 pm N 8.0 11.1----29.96-- 80.4----
2024-02-23 01:36 pmNNE 8.0 11.1----29.96-- 80.4----
2024-02-23 01:30 pm N 8.9 11.1----29.97-- 80.2----
2024-02-23 01:24 pmNNE 7.0 11.1----29.97-- 80.2----
2024-02-23 01:18 pm N 8.9 11.1----29.97-- 80.2----
2024-02-23 01:12 pm N 8.9 11.1----29.97-- 80.2----
2024-02-23 01:06 pmNNE 8.0 12.0----29.98-- 80.2----
2024-02-23 01:00 pmNNE 8.9 11.1----29.98-0.03- 80.2----
2024-02-23 12:54 pm N 7.0 9.9----29.98-- 80.1----
2024-02-23 12:48 pmNNE 8.0 12.0----29.98-- 80.1----
2024-02-23 12:42 pm N 8.9 12.0----29.98-- 80.1----
2024-02-23 12:36 pm N 8.0 11.1----29.98-- 80.1----
2024-02-23 12:30 pmNNE 8.0 11.1----29.98-- 80.1----
2024-02-23 12:24 pm N 8.9 13.0----29.99-- 80.1----
2024-02-23 12:18 pmNNE 8.0 9.9----29.99-- 80.1----
2024-02-23 12:12 pmNNE 7.0 12.0----29.99-- 80.1----
2024-02-23 12:06 pmNNE 8.9 12.0----29.99-- 80.1----
2024-02-23 12:00 pm N 8.9 12.0----29.99+0.00- 79.9----
2024-02-23 11:54 am N 8.9 11.1----30.00-- 79.9----
2024-02-23 11:48 am N 8.9 9.9----30.00-- 79.9----
2024-02-23 11:42 am N 8.9 12.0----30.00-- 79.9----
2024-02-23 11:36 am N 9.9 13.0----30.01-- 79.9----
2024-02-23 11:30 am N 7.0 11.1----30.01-- 79.9----
2024-02-23 11:24 am N 8.9 12.0----30.01-- 79.7----
2024-02-23 11:18 am N 8.0 11.1----30.01-- 79.7----
2024-02-23 11:12 am N 8.9 11.1----30.01-- 79.7----
2024-02-23 11:06 am N 7.0 12.0----30.01-- 79.7----
2024-02-23 11:00 am N 9.9 12.0----30.01+0.04- 79.7----
2024-02-23 10:54 am N 8.0 9.9----30.02-- 79.7----
2024-02-23 10:48 am N 8.9 12.0----30.02-- 79.7----
2024-02-23 10:42 am N 8.9 13.0----30.01-- 79.7----
2024-02-23 10:36 am N 8.0 12.0----30.01-- 79.7----
2024-02-23 10:30 am N 8.0 12.0----30.02-- 79.5----
2024-02-23 10:24 amNNE 8.0 11.1----30.01-- 79.5----
2024-02-23 10:18 am N 6.0 9.9----30.01-- 79.5----
2024-02-23 10:12 am N 8.0 11.1----30.01-- 79.5----
2024-02-23 10:06 am N 6.0 11.1----30.01-- 79.5----
2024-02-23 10:00 am N 8.9 11.1----30.01+0.07- 79.3----
2024-02-23 09:54 am N 8.0 12.0----30.01-- 79.3----
2024-02-23 09:48 am N 7.0 11.1----30.01-- 79.3----
2024-02-23 09:42 amNNE 6.0 11.1----30.01-- 79.3----
2024-02-23 09:36 amNNE 7.0 11.1----30.00-- 79.3----
2024-02-23 09:30 amNNE 8.9 12.0----30.00-- 79.3----
2024-02-23 09:24 amNNE 8.0 9.9----30.00-- 79.3----
2024-02-23 09:18 amNNE 7.0 9.9----29.99-- 79.3----
2024-02-23 09:12 amNNE 8.9 14.0----29.99-- 79.3----
2024-02-23 09:06 am N 9.9 13.0----29.99-- 79.3----
2024-02-23 09:00 am N 8.9 11.1----29.99+0.07- 79.3----
2024-02-23 08:54 am N 9.9 11.1----29.99-- 79.3----
2024-02-23 08:48 am N 8.0 11.1----29.98-- 79.3----
2024-02-23 08:42 am N 8.0 11.1----29.98-- 79.3----
2024-02-23 08:36 am N 9.9 12.0----29.98-- 79.3----
2024-02-23 08:30 am N 8.9 12.0----29.98-- 79.3----
2024-02-23 08:24 am N 8.9 12.0----29.98-- 79.3----
2024-02-23 08:18 am N 8.9 12.0----29.97-- 79.3----
2024-02-23 08:12 am N 8.9 12.0----29.97-- 79.3----
2024-02-23 08:06 am N 8.0 11.1----29.97-- 79.3----
2024-02-23 08:00 amNNE 6.0 11.1----29.97+0.07- 79.3----
2024-02-23 07:54 am N 8.9 12.0----29.97-- 79.3----
2024-02-23 07:48 amNNE 7.0 12.0----29.96-- 79.3----
2024-02-23 07:42 am N 9.9 12.0----29.96-- 79.3----
2024-02-23 07:36 am N 9.9 13.0----29.96-- 79.3----
2024-02-23 07:30 am N 11.1 13.0----29.95-- 79.3----
2024-02-23 07:24 am N 9.9 13.0----29.95-- 79.3----
2024-02-23 07:18 am N 8.9 11.1----29.95-- 79.3----
2024-02-23 07:12 amNNE 5.1 8.9----29.95-- 79.3----
2024-02-23 07:06 amNNE 6.0 12.0----29.95-- 79.5----
2024-02-23 07:00 am N 9.9 11.1----29.94+0.04- 79.5----
2024-02-23 06:54 amNNE 8.0 12.0----29.94-- 79.5----
2024-02-23 06:48 amNNE 7.0 9.9----29.94-- 79.5----
2024-02-23 06:42 amNNE 7.0 11.1----29.94-- 79.7----
2024-02-23 06:36 am N 8.0 12.0----29.93-- 79.7----
2024-02-23 06:30 am N 8.9 12.0----29.93-- 79.7----
2024-02-23 06:24 amNNE 5.1 12.0----29.93-- 79.7----
2024-02-23 06:18 am N 8.9 12.0----29.93-- 79.7----
2024-02-23 06:12 am N 8.9 13.0----29.93-- 79.7----
2024-02-23 06:06 am N 8.0 11.1----29.92-- 79.7----
2024-02-23 06:00 am N 8.9 12.0----29.92+0.02- 79.7----
2024-02-23 05:54 am N 9.9 12.0----29.92-- 79.7----
2024-02-23 05:48 am N 9.9 13.0----29.92-- 79.7----
2024-02-23 05:42 am N 9.9 12.0----29.91-- 79.7----
2024-02-23 05:36 am N 11.1 12.0----29.91-- 79.7----
2024-02-23 05:30 am N 9.9 12.0----29.91-- 79.5----
2024-02-23 05:24 am N 8.0 12.0----29.91-- 79.5----
2024-02-23 05:18 am N 8.9 12.0----29.91-- 79.5----
2024-02-23 05:12 am N 8.9 12.0----29.91-- 79.5----
2024-02-23 05:06 am N 8.9 13.0----29.91-- 79.5----
2024-02-23 05:00 am N 11.1 13.0----29.90-0.01- 79.7----
2024-02-23 04:54 am N 8.9 12.0----29.90-- 79.7----
2024-02-23 04:48 am N 9.9 13.0----29.90-- 79.7----
2024-02-23 04:42 am N 8.9 13.0----29.90-- 79.7----
2024-02-23 04:36 am N 9.9 13.0----29.90-- 79.7----
2024-02-23 04:30 am N 9.9 13.0----29.90-- 79.7----
2024-02-23 04:24 am N 9.9 12.0----29.90-- 79.7----
2024-02-23 04:18 am N 9.9 12.0----29.90-- 79.7----
2024-02-23 04:12 am N 8.9 12.0----29.90-- 79.7----
2024-02-23 04:06 am N 8.9 12.0----29.90-- 79.7----
2024-02-23 04:00 am N 9.9 12.0----29.90-0.03- 79.9----
2024-02-23 03:54 am N 8.9 12.0----29.90-- 79.9----
2024-02-23 03:48 am N 8.9 11.1----29.90-- 79.9----
2024-02-23 03:42 am N 8.9 9.9----29.90-- 79.9----
2024-02-23 03:36 am N 8.0 12.0----29.90-- 79.9----
2024-02-23 03:30 am N 8.9 13.0----29.90-- 79.9----
2024-02-23 03:24 am N 8.9 13.0----29.90-- 79.9----
2024-02-23 03:18 am N 9.9 11.1----29.90-- 79.9----
2024-02-23 03:12 am N 9.9 13.0----29.90-- 80.1----
2024-02-23 03:06 am N 9.9 12.0----29.90-- 80.1----
2024-02-23 03:00 am N 9.9 12.0----29.90-0.03- 80.1----
2024-02-23 02:54 am N 11.1 13.0----29.90-- 80.1----
2024-02-23 02:48 am N 8.0 13.0----29.90-- 80.1----
2024-02-23 02:42 am N 9.9 13.0----29.90-- 80.1----
2024-02-23 02:36 am N 8.9 12.0----29.90-- 80.1----
2024-02-23 02:30 amNNE 6.0 12.0----29.90-- 80.1----
2024-02-23 02:24 am N 9.9 13.0----29.91-- 80.1----
2024-02-23 02:18 am N 8.9 12.0----29.91-- 80.1----
2024-02-23 02:12 am N 8.0 9.9----29.91-- 80.1----
2024-02-23 02:06 am N 8.9 12.0----29.91-- 80.1----
2024-02-23 02:00 am N 11.1 13.0----29.91-0.02- 80.2----
2024-02-23 01:54 am N 9.9 12.0----29.92-- 80.2----
2024-02-23 01:48 am N 11.1 13.0----29.92-- 80.2----
2024-02-23 01:42 am N 9.9 12.0----29.92-- 80.2----
2024-02-23 01:36 am N 11.1 13.0----29.92-- 80.2----
2024-02-23 01:30 am N 9.9 13.0----29.92-- 80.2----
2024-02-23 01:24 am N 12.0 15.0----29.92-- 80.2----
2024-02-23 01:18 am N 12.0 14.0----29.92-- 80.2----
2024-02-23 01:12 am N 12.0 15.0----29.92-- 80.2----
2024-02-23 01:06 am N 13.0 15.0----29.93-- 80.2----
2024-02-23 01:00 am N 13.0 15.0----29.93-0.01- 80.2----
2024-02-23 12:54 am N 13.0 15.9----29.93-- 80.4----
2024-02-23 12:48 am N 11.1 14.0----29.93-- 80.4----
2024-02-23 12:42 am N 12.0 15.0----29.93-- 80.4----
2024-02-23 12:36 am N 12.0 14.0----29.93-- 80.4----
2024-02-23 12:30 am N 11.1 14.0----29.93-- 80.4----
2024-02-23 12:24 am N 12.0 14.0----29.93-- 80.4----
2024-02-23 12:18 am N 12.0 14.0----29.93-- 80.4----
2024-02-23 12:12 am N 11.1 15.0----29.93-- 80.4----
2024-02-23 12:06 am N 11.1 13.0----29.93-- 80.4----
2024-02-23 12:00 am N 8.9 14.0----29.93+0.00- 80.6----
2024-02-22 11:54 pmNNW 8.9 15.9----29.93-- 80.6----
2024-02-22 11:48 pm N 9.9 13.0----29.93-- 80.6----
2024-02-22 11:42 pm N 9.9 14.0----29.93-- 80.6----
2024-02-22 11:36 pm N 12.0 15.0----29.94-- 80.6----
2024-02-22 11:30 pm N 12.0 14.0----29.94-- 80.6----
2024-02-22 11:24 pm N 11.1 14.0----29.94-- 80.8----
2024-02-22 11:18 pm N 8.9 15.0----29.94-- 80.8----
2024-02-22 11:12 pm N 14.0 17.1----29.94-- 80.8----
2024-02-22 11:06 pm N 13.0 15.9----29.94-- 80.8----
2024-02-22 11:00 pm N 13.0 15.0----29.94+0.02- 81.0----
2024-02-22 10:54 pm N 12.0 15.9----29.94-- 81.0----